www.pogodaiklimat.ru

Погода и климат >> Архив погоды >> Россия >> Марий-Эл >> Йошкар-Ола


АРХИВ ПОГОДЫ в Йошкар-Оле

Время (UTC), дата Ветер
(напр.,м/с)
 
Видим.   Явления Облачность Т
(С)
Тd
(С)
f
(%)
Тe
(С)
Тes
(С)
Комфортность P
(гПа)
Po
(гПа)
Тmin
(С)
Tmax
(С)
R
(мм)
R24
(мм)
S
(см)
00 13.06 СЗ 3-5
{5}
10 км ясно +4.0 0.0 75 0 0 очень
холодно
1022.5 1007.5
03 13.06 С 4-6
{7}
20 км ясно +6.7 +1.8 71 +3 +5 очень
холодно
1023.4 1008.6 +3.8
06 13.06 С 5-8
{10}
50 км 3/3 1000 м
[Cu med, cong]
+11.4 +0.2 46 +9 +13 очень
холодно
1024.4 1009.8
09 13.06 СЗ 6-10
{11}
50 км 4/1 1000 м
[Cu hum Ci fib]
+14.7 +0.4 38 +13 +18 холодно 1023.7 1009.3
12 13.06 СЗ 6-10
{11}
50 км 3/1 1000 м
[Cu hum Ci fib]
+16.6 +0.2 33 +16 +19 холодно 1023.0 1008.7
15 13.06 С 6-10
{11}
50 км 3/0
[Ci fib]
+16.8 +0.2 32 +16 +17 прохладно 1022.7 1008.4 +17.3
18 13.06 СЗ 2-3
{10}
10 км 8/0
[Ac lent Ci]
+12.4 +2.9 52 +12 +12 прохладно 1022.9 1008.4
21 13.06 СЗ 2-3
{4}
10 км 8/0
[Ac lent Ci]
+9.4 +3.1 65 +8 +8 холодно 1023.1 1008.4
00 14.06 З 2-4
{4}
10 км 8/0
[Ac lent Ci fib]
+7.7 +2.7 71 +6 +6 холодно 1023.4 1008.6
03 14.06 З 1-1
{4}
50 км 9/0
[Ac lent Cs]
+10.7 +4.5 65 +11 +13 прохладно 1022.7 1008.1 +7.3
06 14.06 З 2-3
{3}
50 км 9/6 1000 м
[Sc Ac trans]
+14.5 +5.2 54 +14 +17 прохладно 1020.9 1006.6
09 14.06 З 3-6
{6}
50 км 10/8 600 м
[Cb calv Ac As]
+15.9 +4.7 47 +16 +16 прохладно 1019.7 1005.4
12 14.06 З 4-8
{10}
50 км 10/6 600 м
[Cb cap Ac As]
+13.0 +5.3 59 +11 +12 очень
холодно
1017.8 1003.4
15 14.06 З 3-5
{8}
50 км 8/5 300 м
[Cb cap Ac trans Ci fib]
+11.9 +6.2 68 +10 +11 очень
холодно
1016.1 1001.8 +16.1
18 14.06 З 2-3
{5}
20 км 8/4 1000 м
[Sc Ac trans]
+10.1 +6.9 81 +9 +9 очень
холодно
1015.0 1000.6
21 14.06 З 2-3
{4}
10 км 3/3 1000 м
[Sc]
+8.1 +7.0 93 +6 +6 очень
холодно
1015.3 1000.7
00 15.06 СЗ 2-3
{4}
10 км 1/1 1000 м
[Sc diur, vesp]
+6.3 +5.6 95 +4 +4 очень
холодно
1015.0 1000.3
03 15.06 С 1-3
{3}
10 км 1/0
[Ci fib]
+8.9 +7.0 88 +8 +12 очень
холодно
1015.1 1000.5 +5.8
06 15.06 З 2-4
{4}
50 км 8/8 1000 м
[Cu med, cong Ci fib]
+15.4 +7.8 60 +15 +18 прохладно 1014.7 1000.5
09 15.06 З 2-3
{5}
50 км 8/8 600 м
[Cb calv]
+16.6 +5.1 47 +17 +20 прохладно 1014.1 1000.0
12 15.06 З 3-6
{6}
50 км 8/4 600 м
[Cb calv Ac trans]
+18.5 +4.3 39 +19 +22 прохладно 1013.1 999.0
15 15.06 СЗ 3-5
{6}
50 км 4/3 600 м
[Cb calv Ac lent]
+18.2 +4.7 41 +18 +20 по сезону 1011.6 997.5 +18.9
18 15.06 ЮЗ 2-3
{5}
20 км 8/6 1000 м
[Sc Ac trans]
+14.5 +6.2 57 +14 +14 прохладно 1011.6 997.4
21 15.06 З 2-4
{5}
10 км 8/8 1000 м
[Sc Ac trans]
+12.4 +7.5 72 +12 +12 прохладно 1011.4 997.1
00 16.06 З 2-4
{5}
10 км 3/0
[Ac lent Ci fib]
+10.2 +7.5 83 +9 +9 прохладно 1010.7 996.3
03 16.06 СЗ 3-4
{5}
50 км 8/5 600 м
[Cb calv Ci fib]
+12.1 +8.9 81 +11 +12 холодно 1010.6 996.3 +10.1
06 16.06 СЗ 2-3
{5}
20 км 9/6 600 м
[Cb calv Ac trans Ci fib]
+15.2 +10.3 73 +15 +18 прохладно 1010.8 996.6
09 16.06 СЗ 5-8
{9}
20 км {ливн. осадки} 9/6 600 м
[Cb calv Ac trans Ci fib]
+18.1 +9.6 58 +18 +20 прохладно 1010.1 996.1
12 16.06 СЗ 4-6
{8}
20 км {ливн. осадки} 8/5 600 м
[Cb calv Ac trans Ci fib]
+18.9 +9.0 53 +19 +22 прохладно 1009.7 995.7
15 16.06 С 4-6
{8}
20 км 6/4 600 м
[Cb calv Ac trans Ci fib]
+18.2 +6.6 47 +18 +19 по сезону 1009.9 995.9 +19.5 0.3
18 16.06 СЗ 1-2
{6}
10 км 3/0
[Ac trans]
+13.7 +6.9 63 +14 +14 прохладно 1011.2 996.9
21 16.06 штиль 0
{2}
10 км 8/4 1000 м
[Sc Ac cast]
+10.2 +7.3 82 +10 +10 холодно 1011.4 997.0
00 17.06 ЮЗ 2-2
{3}
10 км 6/3 1000 м
[Sc Ac trans]
+9.2 +5.9 80 +8 +8 холодно 1011.5 997.0
03 17.06 ЮЗ 3-4
{4}
20 км 8/4 1000 м
[Sc Ac cast]
+11.8 +8.8 82 +10 +11 холодно 1010.5 996.2 +8.6
06 17.06 З 3-5
{7}
50 км 8/3 1000 м
[Sc Ac trans]
+20.5 +10.8 54 +23 +26 комфорт 1009.9 996.0
09 17.06 СЗ 5-9
{11}
50 км 8/6 600 м
[Cb calv Ac trans]
+23.5 +9.6 41 +24 +27 комфорт 1009.1 995.3
12 17.06 СЗ 6-12
{12}
50 км 8/4 600 м
[Cb calv Ac trans]
+24.7 +9.8 39 +26 +27 жарко 1008.7 995.0
15 17.06 СЗ 2-4
{12}
50 км 8/4 600 м
[Cu Sc Ci fib]
+22.2 +9.9 46 +24 +25 комфорт 1008.6 994.8 +24.8
18 17.06 З 1-2
{5}
10 км 8/3 1000 м
[Sc diur, vesp Ci fib]
+20.0 +10.2 53 +22 +22 комфорт 1009.1 995.2
21 17.06 З 2-4
{4}
10 км 9/4 1000 м
[Sc Ac trans]
+17.9 +10.2 61 +18 +18 тепло 1009.5 995.5
00 18.06 СВ 2-3
{7}
10 км 8/8 1000 м
[Sc]
+12.8 +9.9 83 +12 +12 по сезону 1010.6 996.3
03 18.06 ЮВ 2-3
{3}
50 км 9/6 1000 м
[Sc Ac trans]
+14.0 +8.4 69 +14 +14 по сезону 1011.0 996.8 +12.3
06 18.06 Ю 3-4
{5}
50 км 8/5 1000 м
[Sc Ac trans]
+18.2 +9.0 55 +19 +22 по сезону 1010.9 996.9
09 18.06 З 2-4
{4}
50 км 8/3 600 м
[Cu med, cong Ac trans Ci]
+23.8 +12.1 48 +26 +33 жарко 1009.8 996.1
12 18.06 ЮЗ 2-4
{5}
50 км 8/5 600 м
[Cb cap Ac trans Ci fib]
+24.7 +11.7 44 +26 +30 жарко 1008.9 995.2
15 18.06 Ю 1-2
{4}
20 км {ливн. осадки} 8/4 600 м
[Cb calv Ac trans Ci fib]
+24.2 +13.8 52 +26 +27 жарко 1007.7 994.0 +25.5 0.8
18 18.06 СЗ 3-4
{7}
10 км слаб. ливневой дождь 8/5 600 м
[Cb cap Ac trans]
+18.0 +14.7 81 +18 +18 по сезону 1008.7 994.7
21 18.06 ЮЗ 2-3
{4}
10 км {ливн. осадки} 8/0
[Ac trans]
+16.8 +14.0 84 +17 +17 тепло 1008.0 993.9
00 19.06 СЗ 1-2
{7}
10 км {ливн. осадки} 8/0
[Ac trans]
+14.3 +12.8 91 +15 +15 тепло 1008.7 994.5
03 19.06 СЗ 1-3
{4}
20 км 5/0
[Ci fib]
+16.4 +13.6 84 +17 +20 по сезону 1009.3 995.2 +13.4 0.4
06 19.06 СЗ 3-5
{5}
50 км 3/0
[Ci fib]
+21.8 +14.5 63 +25 +34 комфорт 1009.6 995.8
09 19.06 С 4-7
{9}
50 км 5/5 600 м
[Cu med, cong]
+24.8 +12.3 46 +27 +32 жарко 1009.8 996.1
12 19.06 СЗ 4-7
{8}
50 км 3/3 600 м
[Cu med, cong]
+26.5 +9.8 35 +27 +32 жарко 1009.9 996.3
15 19.06 СЗ 4-7
{7}
50 км 4/3 600 м
[Cu med, cong Ci fib]
+25.8 +12.8 44 +28 +29 жарко 1010.1 996.5 +26.7
18 19.06 З 1-2
{7}
10 км 5/3 1000 м
[Sc diur, vesp Ci fib]
+21.7 +13.0 58 +24 +24 комфорт 1011.3 997.5
21 19.06 З 1-2
{3}
10 км 3/0
[Ac lent Ci fib]
+18.0 +13.6 75 +19 +19 тепло 1012.3 998.2

 

Местоположение метеостанции Йошкар-Ола (Марий-Эл, Россия): широта 56.63 долгота 47.77 высота над уровнем моря 120 м.

В архиве по умолчанию представлена погода в Йошкар-Оле за последнюю неделю. Архивные данные за месяц целиком и за предыдущие месяцы, начиная с января 2011 года, Вы можете получить, выбрав интересующий диапазон дат из раскрывающегося списка и нажав кнопку "Ввод!".


*Определитесь, кто Вы:
робот инопланетянин человек

Внимание! Время в таблицах - всемирное. Для получения местного времени необходимо прибавить поправку, которая равна 3 ч.

Смотрите также архив погоды в соседних городах и на ближайших метеорологических станциях:

Погода в Санчурске (Кировская область, Россия) (48 км)
Погода в Чебоксарах (Чувашия, Россия) (67 км)
Погода в Новом Торьяле (Марий-Эл, Россия) (71 км)
Погода в Морках (Марий-Эл, Россия) (80 км)
Погода в Козьмодемьянске (Марий-Эл, Россия) (80 км)
Погода в Яранске (Кировская область, Россия) (83 км)
Погода в Вязовых (Татарстан, Россия) (101 км)
Погода в Канаше (Чувашия, Россия) (125 км)
Погода в Шахунье (Нижегородская область, Россия) (134 км)
Погода в Казани (Татарстан, Россия) (134 км)

Пояснения к столбцам:

Ветер - указаны скорость ветра в м/с - средняя за 10 мин, порывы в срок и между сроками (в фигурных скобках) и направление, откуда дует ветер: С - северный, СВ - северо-восточный, В - восточный, ЮВ - юго-восточный, Ю - южный, ЮЗ - юго-западный, З - западный, СЗ - северо-западный.
Видимость - горизонтальная дальность видимости в метрах или километрах. При видимости от 1 до 10 км при отсутствии осадков обычно наблюдается дымка, при ухудшении видимости до 1 км и менее - туман. В сухую погоду видимость может ухудшаться дымом, пылью или мглою.
Явления - указаны атмосферные явления, наблюдавшиеся в срок или в последний час перед сроком; фигурными скобками обозначены явления, наблюдавшиеся между сроками (за 1-3 часа до срока); квадратными скобками обозначены град или гололедные отложения с указанием их диаметра в мм.
Облачность - указаны через наклонную черту общая и нижняя облачность в баллах и высота нижней границы облаков в метрах; квадратными скобками обозначены формы облаков: Ci - перистые, Cs - перисто-слоистые, Cc - перисто-кучевые, Ac - высококучевые, As - высокослоистые, Sc - слоисто-кучевые, Ns - слоисто-дождевые, Cu - кучевые, Cb - кучево-дождевые. Подробнее классификацию облаков см. в Атласе облаков (PDF).
T - Температура воздуха - температура, измеренная на высоте 2 м над землей.
Td - Температура точки росы - температура, при понижении до которой содержащийся в воздухе водяной пар достигнет насыщения.
f - Относительная влажность воздуха - влажноcть воздуха, измеренная на высоте 2 м над землей.
Te - Эффективная температура - температура, которую ощущает одетый по сезону человек в тени. Характеристика душности погоды. При расчете учитывается влияние влажности воздуха и скорости ветра на теплоощущения человека.
Tes - Эффективная температура на солнце - температура, которую ощущает человек, с поправкой на солнечный нагрев. Характеристика знойности погоды. Зависит от высоты солнца над горизонтом, облачности и скорости ветра. Ночью, в пасмурную погоду, а также при ветре 12 м/с и более поправка равна нулю.
P - Атмосферное давление - приведенное к уровню моря атмосферное давление.
Po - Атмосферное давление - измеренное на уровне метеостанции атмосферное давление.
Tmin - Минимальная температура - минимум температуры воздуха на высоте 2 м над землей.
Tmax - Максимальная температура - максимум температуры воздуха на высоте 2 м над землей.
R - Количество осадков - Количество выпавших осадков за период времени, мм. При наведении курсора мыши на число - период времени, за который выпало указанное количество осадков.
R24 - Количество осадков - Количество выпавших осадков за 24 часа, мм.
S - Снежный покров - Высота снежного покрова, см. При наведении курсора мыши на число - состояние снежного покрова и степень покрытия местности в баллах.